This is the latest recevied weather packets stored in our database for station/object K5GHS-1. If no packets are shown the sender has not sent any weather packets the latest 10 day(s).
| Time | Temp. | Humidity | Pressure | Rain* | Wind** | Luminosity | Snow |
|---|---|---|---|---|---|---|---|
| 1788038261 | 38.89° C | 32% | 1013.1 hPa | 0 mm | - | 463 W/m² | - |
| 1788037957 | 38.89° C | 32% | 1013.2 hPa | 0 mm | - | 448 W/m² | - |
| 1788037651 | 37.78° C | 33% | 1013.4 hPa | 0 mm | - | 440 W/m² | - |
| 1788037347 | 37.78° C | 34% | 1013.5 hPa | 0 mm | - | 405 W/m² | - |
| 1788037045 | 37.78° C | 34% | 1013.6 hPa | 0 mm | - | 72 W/m² | - |
| 1788036742 | 37.78° C | 35% | 1013.8 hPa | 0 mm | - | 586 W/m² | - |
| 1788036438 | 38.33° C | 35% | 1013.8 hPa | 0 mm | - | 124 W/m² | - |
| 1788036133 | 38.89° C | 34% | 1013.8 hPa | 0 mm | - | 539 W/m² | - |
| 1788035833 | 38.33° C | 33% | 1013.7 hPa | 0 mm | - | 152 W/m² | - |
| 1788035528 | 37.78° C | 34% | 1013.9 hPa | 0 mm | - | 603 W/m² | - |
| 1788035223 | 38.33° C | 34% | 1013.8 hPa | 0 mm | - | 93 W/m² | - |
| 1788034919 | 38.33° C | 33% | 1014 hPa | 0 mm | - | 603 W/m² | - |
| 1788034615 | 38.33° C | 34% | 1013.9 hPa | 0 mm | - | 575 W/m² | - |
| 1788034311 | 38.89° C | 33% | 1014.2 hPa | 0 mm | - | 532 W/m² | - |
| 1788034010 | 38.33° C | 34% | 1014.2 hPa | 0 mm | - | 571 W/m² | - |
| 1788033705 | 38.33° C | 34% | 1014.2 hPa | 0 mm | - | 598 W/m² | - |
| 1788033404 | 38.89° C | 33% | 1014.3 hPa | 0 mm | - | 104 W/m² | - |
| 1788033099 | 38.33° C | 35% | 1014.5 hPa | 0 mm | - | 606 W/m² | - |
| 1788032794 | 38.89° C | 34% | 1014.5 hPa | 0 mm | - | 572 W/m² | - |
| 1788032497 | 38.89° C | 34% | 1014.5 hPa | 0 mm | - | 609 W/m² | - |
| 1788032184 | 38.89° C | 34% | 1014.8 hPa | 0 mm | - | 636 W/m² | - |
| 1788031881 | 38.89° C | 35% | 1014.7 hPa | 0 mm | - | 629 W/m² | - |
| 1788031581 | 38.89° C | 35% | 1015 hPa | 0 mm | - | 608 W/m² | - |
| 1788031280 | 38.33° C | 36% | 1014.9 hPa | 0 mm | - | 622 W/m² | - |
| 1788030978 | 38.33° C | 35% | 1014.9 hPa | 0 mm | - | 663 W/m² | - |
* Rain latest hour (hover to see other rain measurements)
** Current wind speed in m/s (hover to see current wind gust speed)